World > North America > United States > New York

Hourly Reber, NY Regional Weather

Feedback E-mail the Weather

Latest News

Reber, NY Weather Maps

°F °C°F °C
Reber Weather Map
UTC Time: 5/28/2022, 11:23
Your Time:

Reber, NY Regional Weather

Expires:202205281100;;697204
ASUS41 KBTV 281030
RWRBTV
VERMONT REGIONAL WEATHER ROUNDUP
NATIONAL WEATHER SERVICE BURLINGTON VT
600 AM EDT SAT MAY 28 2022

NOTE: "FAIR" INDICATES FEW OR NO CLOUDS BELOW 12,000 FEET WITH NO 
SIGNIFICANT WEATHER AND/OR OBSTRUCTIONS TO VISIBILITY.

* THESE REPORTS ARE NOT UNDER NWS QUALITY CONTROL AND/OR DO NOT
  REPORT WEATHER SUCH AS PRECIPITATION AND FOG.


NYZ007-026>031-035-052-083-087-281100-
_____NORTHERN NEW YORK_
  
CITY           SKY/WX    TMP DP  RH WIND       PRES   REMARKS
PLATTSBURGH    CLOUDY    63  60  90 S5        29.64R                  
SARANAC LAKE   CLOUDY    60  59  96 SW6       29.67R                  
MASSENA        LGT RAIN  62  59  90 NW9       29.67R FOG              
OGDENSBURG*    RAIN      61  61 100 NW8       29.65R                  
POTSDAM*       LGT RAIN  63  61  94 W5        29.66R                  
WATERTOWN      CLOUDY    59  57  93 W5        29.68R                  
FT DRUM        CLOUDY    61  61 100 W8        29.67R                  
ALBANY         CLOUDY    66  64  93 S7        29.68R                  
GLENS FALLS    CLOUDY    63  62  97 SW3       29.68R                  

$$

SKY/WX - Weather  TMP - Temperature  DP - Dew Point  RH - Humidity
WIND - Wind Direction/Speed PRES - Barometric Pressure VSB - Visibility
WCI - Wind Chill Index E13G22 Wind - East Wind 13 mph/Gusts of 22 mph

Trending Headlines

Reber Radar Loop



Reber Quick Facts


National Two Day Weather Forecast


E-mail the Reber Weather Forecast

Voice your opinion or tell us about page issues...